Location: Baia Mare
(47.6567°N, 23.5850°E)
Time: 17:45:17
(UTC+03:00)

ISS - Pass Details

Date: 03 August 2018
Orbit: 402 x 408 km, 51.6° (Epoch: 20 July)

Event Time Altitude Azimuth Distance (km) Brightness Sun altitude
Rises 22:15:33 0° 293° (WNW) 2,323 1.5 -11.6°
Reaches altitude 10° 22:17:38 10° 291° (WNW) 1,462 0.2 -11.8°
Maximum altitude 22:20:54 69° 208° (SSW) 435 -3.8 -12.2°
Enters shadow 22:22:47 23° 128° (SE) 921 -2.7 -12.5°
